KZR131 UAAA-UTDD

Flight info

Callsign KZR131
Flight time N/A
Altitude 38000
Route LAKEL L135 VADER B350 JD
Aircraft A20N/M-SDE2E3FGHIRWXY/LB1

Departure

Time 2026-05-07 14:25
Airport Almaty International Airport (UAAA)

Arrival

Time N/A
Airport Dushanbe International Airport (UTDD)
Time Latitude Longitude Altitude Speed Heading
2026-05-07 14:02 43.34681 77.01306 2232 ft 0 kts 246°
2026-05-07 14:15 43.34688 77.01327 2232 ft 3 kts 246°
2026-05-07 14:15 43.34696 77.01353 2232 ft 3 kts 244°
2026-05-07 14:16 43.34705 77.01377 2232 ft 3 kts 239°
2026-05-07 14:16 43.34714 77.01394 2232 ft 2 kts 221°
2026-05-07 14:16 43.34723 77.01400 2232 ft 1 kts 189°
2026-05-07 14:16 43.34736 77.01399 2232 ft 2 kts 162°
2026-05-07 14:17 43.34752 77.01390 2232 ft 1 kts 154°
2026-05-07 14:17 43.34738 77.01398 2232 ft 3 kts 156°
2026-05-07 14:17 43.34728 77.01404 2232 ft 1 kts 154°
2026-05-07 14:17 43.34720 77.01409 2232 ft 1 kts 154°
2026-05-07 14:18 43.34719 77.01410 2232 ft 0 kts 154°
2026-05-07 14:21 43.34717 77.01412 2232 ft 2 kts 150°
2026-05-07 14:21 43.34690 77.01431 2232 ft 6 kts 154°
2026-05-07 14:21 43.34653 77.01454 2232 ft 5 kts 154°
2026-05-07 14:21 43.34619 77.01464 2232 ft 5 kts 176°
2026-05-07 14:22 43.34589 77.01466 2232 ft 4 kts 169°
2026-05-07 14:22 43.34545 77.01490 2232 ft 8 kts 155°
2026-05-07 14:22 43.34493 77.01521 2232 ft 8 kts 156°
2026-05-07 14:22 43.34443 77.01552 2233 ft 8 kts 155°
2026-05-07 14:23 43.34396 77.01583 2233 ft 7 kts 155°
2026-05-07 14:23 43.34349 77.01613 2233 ft 8 kts 155°
2026-05-07 14:23 43.34285 77.01654 2233 ft 12 kts 155°
2026-05-07 14:23 43.34204 77.01706 2233 ft 14 kts 155°
2026-05-07 14:24 43.34149 77.01795 2233 ft 10 kts 73°
2026-05-07 14:24 43.34185 77.01870 2233 ft 9 kts 56°
2026-05-07 14:24 43.34316 77.02135 2233 ft 66 kts 56°
2026-05-07 14:24 43.34692 77.02894 2231 ft 128 kts 55°
2026-05-07 14:25 43.35300 77.04100 2255 ft 174 kts 56°
2026-05-07 14:25 43.35999 77.05474 2770 ft 175 kts 56°
2026-05-07 14:25 43.36700 77.06842 3444 ft 175 kts 56°
2026-05-07 14:25 43.37411 77.08209 4041 ft 183 kts 55°
2026-05-07 14:26 43.38222 77.09750 4398 ft 215 kts 54°
2026-05-07 14:26 43.39172 77.11543 4724 ft 247 kts 54°
2026-05-07 14:26 43.40199 77.13545 5328 ft 263 kts 55°
2026-05-07 14:26 43.41346 77.15537 6069 ft 270 kts 43°
2026-05-07 14:27 43.42948 77.16862 6732 ft 279 kts 14°
2026-05-07 14:27 43.44879 77.16890 7521 ft 282 kts 343°
2026-05-07 14:27 43.46699 77.15854 8320 ft 284 kts 332°
2026-05-07 14:27 43.48446 77.14559 9216 ft 287 kts 330°
2026-05-07 14:28 43.50202 77.13221 10123 ft 289 kts 329°
2026-05-07 14:28 43.51998 77.11813 10646 ft 307 kts 325°
2026-05-07 14:28 43.53559 77.09729 11096 ft 321 kts 301°
2026-05-07 14:28 43.54291 77.06816 11808 ft 326 kts 278°
2026-05-07 14:29 43.54481 77.03683 12671 ft 330 kts 272°
2026-05-07 14:29 43.54574 77.00555 13579 ft 333 kts 272°
2026-05-07 14:29 43.54790 76.97369 14392 ft 336 kts 281°
2026-05-07 14:29 43.55620 76.94346 15132 ft 342 kts 300°
2026-05-07 14:30 43.56915 76.91577 15886 ft 345 kts 298°
2026-05-07 14:30 43.57586 76.88410 16630 ft 349 kts 274°
2026-05-07 14:30 43.57332 76.85060 17390 ft 355 kts 259°
2026-05-07 14:30 43.56759 76.81726 18133 ft 360 kts 258°
2026-05-07 14:31 43.56180 76.78352 18806 ft 363 kts 258°
2026-05-07 14:31 43.55638 76.74943 19501 ft 365 kts 259°
2026-05-07 14:31 43.55058 76.71529 20178 ft 368 kts 253°
2026-05-07 14:31 43.53962 76.68376 20824 ft 373 kts 236°
2026-05-07 14:32 43.52090 76.65882 21489 ft 381 kts 215°
2026-05-07 14:32 43.49635 76.64471 22141 ft 389 kts 194°
2026-05-07 14:32 43.46906 76.64347 22768 ft 399 kts 174°
2026-05-07 14:32 43.44246 76.65547 23396 ft 409 kts 155°
2026-05-07 14:33 43.41877 76.67759 23935 ft 416 kts 143°
2026-05-07 14:33 43.39646 76.70320 24432 ft 420 kts 142°
2026-05-07 14:33 43.37393 76.72902 24951 ft 422 kts 142°
2026-05-07 14:33 43.35106 76.75450 25448 ft 425 kts 143°
2026-05-07 14:34 43.32813 76.77948 25934 ft 427 kts 143°
2026-05-07 14:34 43.30465 76.80465 26421 ft 430 kts 144°
2026-05-07 14:34 43.27993 76.82767 26873 ft 431 kts 152°
2026-05-07 14:34 43.25271 76.84476 27317 ft 431 kts 163°
2026-05-07 14:35 43.22362 76.85439 27736 ft 431 kts 174°
2026-05-07 14:35 43.19369 76.85609 28167 ft 431 kts 185°
2026-05-07 14:35 43.16401 76.84984 28578 ft 432 kts 196°
2026-05-07 14:35 43.13580 76.83591 28981 ft 432 kts 207°
2026-05-07 14:36 43.10978 76.81530 29389 ft 433 kts 215°
2026-05-07 14:36 43.08494 76.79179 29792 ft 435 kts 218°
2026-05-07 14:36 43.06058 76.76693 30188 ft 438 kts 219°
2026-05-07 14:36 43.03666 76.74183 30526 ft 440 kts 219°
2026-05-07 14:37 43.01237 76.71626 30851 ft 442 kts 219°
2026-05-07 14:37 42.96319 76.66523 31559 ft 445 kts 219°
2026-05-07 14:37 42.93846 76.63996 32007 ft 443 kts 218°
2026-05-07 14:38 42.91379 76.61490 32464 ft 441 kts 218°
2026-05-07 14:38 42.88920 76.59000 32869 ft 440 kts 218°
2026-05-07 14:38 42.86460 76.56511 33238 ft 440 kts 218°
2026-05-07 14:38 42.83999 76.54022 33615 ft 440 kts 218°
2026-05-07 14:39 42.81578 76.51574 33981 ft 439 kts 218°
2026-05-07 14:39 42.79122 76.49095 34320 ft 439 kts 218°
2026-05-07 14:39 42.76674 76.46625 34628 ft 438 kts 218°
2026-05-07 14:39 42.74223 76.44154 34933 ft 438 kts 218°
2026-05-07 14:40 42.71781 76.41695 35215 ft 438 kts 218°
2026-05-07 14:40 42.69334 76.39233 35507 ft 437 kts 219°
2026-05-07 14:40 42.66886 76.36773 35768 ft 437 kts 219°
2026-05-07 14:40 42.64443 76.34320 36035 ft 437 kts 219°
2026-05-07 14:41 42.62001 76.31870 36284 ft 436 kts 219°
2026-05-07 14:41 42.59557 76.29421 36532 ft 436 kts 219°
2026-05-07 14:41 42.57114 76.26976 36760 ft 436 kts 219°
2026-05-07 14:41 42.54708 76.24569 37004 ft 436 kts 219°
2026-05-07 14:42 42.52268 76.22131 37218 ft 436 kts 219°
2026-05-07 14:42 42.49829 76.19697 37450 ft 436 kts 219°
2026-05-07 14:42 42.47388 76.17264 37673 ft 435 kts 219°
2026-05-07 14:42 42.44985 76.14774 37905 ft 434 kts 224°
2026-05-07 14:43 42.42839 76.11924 38094 ft 431 kts 232°
2026-05-07 14:43 42.40982 76.08756 38136 ft 430 kts 236°
2026-05-07 14:43 42.37534 76.02195 38144 ft 427 kts 238°
2026-05-07 14:44 42.34224 75.95602 38145 ft 426 kts 239°
2026-05-07 14:44 42.30888 75.88978 38148 ft 427 kts 238°
2026-05-07 14:45 42.27524 75.82374 38153 ft 427 kts 238°
2026-05-07 14:45 42.24143 75.75778 38162 ft 427 kts 238°
2026-05-07 14:46 42.20755 75.69186 38170 ft 427 kts 238°
2026-05-07 14:46 42.17365 75.62603 38171 ft 427 kts 238°
2026-05-07 14:47 42.13996 75.56073 38177 ft 427 kts 238°
2026-05-07 14:47 42.10597 75.49500 38184 ft 427 kts 238°
2026-05-07 14:48 42.07195 75.42934 38192 ft 427 kts 238°
2026-05-07 14:48 42.03792 75.36382 38200 ft 428 kts 238°
2026-05-07 14:49 42.00402 75.29869 38205 ft 428 kts 238°
2026-05-07 14:49 41.96987 75.23321 38214 ft 428 kts 238°
2026-05-07 14:50 41.93571 75.16785 38218 ft 428 kts 238°
2026-05-07 14:50 41.90149 75.10253 38217 ft 428 kts 238°
2026-05-07 14:51 41.86725 75.03731 38220 ft 427 kts 238°
2026-05-07 14:51 41.83322 74.97263 38222 ft 427 kts 238°
2026-05-07 14:52 41.79890 74.90752 38200 ft 427 kts 238°
2026-05-07 14:52 41.76457 74.84252 38196 ft 427 kts 238°
2026-05-07 14:53 41.73047 74.77807 38185 ft 427 kts 238°
2026-05-07 14:53 41.69611 74.71324 38192 ft 427 kts 237°
2026-05-07 14:54 41.66176 74.64859 38183 ft 426 kts 238°
2026-05-07 14:54 41.62737 74.58398 38176 ft 427 kts 238°